{"data":{"norad_id":64486,"intl_designator":"2025-133Q","name":"STARLINK-34520","alt_names":[],"object_type":"PAYLOAD","status":"ACTIVE","operator":null,"country":"US","launch_date":"2025-06-23","launch_site_code":"AFETR","launch_vehicle":null,"mission":null,"orbit_class":"UNKNOWN","rcs_meters":null,"size_class":null,"mass_kg":null,"dimensions":null,"purposes":["comms"],"wikipedia_slug":null,"has_3d_model":false,"image_url":null,"decayed_at":null,"tle_current":{"epoch":"2026-05-25T05:27:11.172096Z","epoch_age_seconds":51551,"freshness":"FRESH","line1":"1 64486U 25133Q   26145.22721264  .00016169  00000+0  55684-3 0  9999","line2":"2 64486  53.1567 121.5007 0001149  87.4137 272.6995 15.30199279 52900","mean_motion":15.30199279,"eccentricity":0.0001149,"inclination_deg":53.1567,"raan_deg":121.5007,"arg_perigee_deg":87.4137,"mean_anomaly_deg":272.6995,"bstar":0.00055684,"rev_number":5290,"period_min":94.105390047044,"perigee_km":474.42977179608,"apogee_km":476.00467259634,"semimajor_km":6853.3542221962,"source":"CELESTRAK","updated_at":"2026-05-25T13:38:20.459706Z"}}}